sat.trackr.live / text

‹ back to catalog

TROLL

NORAD 62658 · 2025-009BB

PAYLOAD ACTIVE UNKNOWN

§ Identity

Operator
Country
CZCH
Launch date
2025-01-14
Launch site
AFWTR
Launch vehicle
Mass (kg)
RCS (m²)

External: N2YO · Heavens-Above · Gunter

§ Orbital elements

Epoch: 2026-09-22T12:50:18.335616Z

Period
94.02 min
Inclination
97.3839°
Eccentricity
0.0002190
Mean motion
15.31668015 rev/d
Perigee alt
469.3 km
Apogee alt
472.3 km
Semi-major
6,849.0 km
B*
2.2120e-4
RAAN
346.9596°
Arg perigee
64.5273°
Mean anomaly
295.6195°
Rev number
14,834

§ Raw data

TROLL1 62658U 25009BB  26265.53493444  .00006686  00000+0  22120-3 0  99952 62658  97.3839 346.9596 0002190  64.5273 295.6195 15.31668015148342

JSON: /api/v1/satellites/62658 · /tle

For live sub-satellite position, see the globe view (requires WebGL).

§ Visibility from observer

Set your observer location to see the next 7 days of passes ≥ 10°. The values pass through the URL so the page stays shareable.

No JS? Fill the form by hand. The geolocation button needs JavaScript.

§ Radio — SatNOGS DB

ModeDescriptionDownlinkUplink
BPSK Mode S - Transmitter 1 2.256 GHz
FM Mode S - Transmitter 2 2.281 GHz

2 transmitters · refreshed weekly from db.satnogs.org